Hourly Weather Rudnevo

Today, 20 April, Tuesday

Time Temperature Precipitation Wind Pressure Humidity
00:00 +3°C° 0 mm 6 mps 750 mmHg 86%
01:00 +3°C° 0 mm 6 mps 749 mmHg 85%
02:00 +3°C° 0 mm 6 mps 749 mmHg 83%
03:00 +3°C° 0 mm 6 mps 749 mmHg 82%
04:00 +2°C° 0 mm 6 mps 749 mmHg 85%
05:00 +2°C° 0 mm 6 mps 749 mmHg 88%
06:00 +2°C° 0 mm 6 mps 748 mmHg 90%
07:00 +2°C° 0.2 mm 6 mps 748 mmHg 92%
08:00 +1°C° 0.2 mm 6 mps 748 mmHg 94%
09:00 +1°C° 0.2 mm 6 mps 748 mmHg 96%
10:00 +1°C° 0.4 mm 6 mps 748 mmHg 96%
11:00 -1°C° 0.4 mm 6 mps 748 mmHg 96%
12:00 -1°C° 0.4 mm 6 mps 747 mmHg 96%
13:00 +1°C° 0.9 mm 6 mps 747 mmHg 96%
14:00 +1°C° 0.9 mm 6 mps 747 mmHg 96%
15:00 +1°C° 0.9 mm 6 mps 746 mmHg 96%
16:00 +1°C° 0.2 mm 6 mps 746 mmHg 95%
17:00 0°C° 0.2 mm 7 mps 745 mmHg 95%
18:00 0°C° 0.2 mm 7 mps 744 mmHg 95%
19:00 0°C° 0.5 mm 7 mps 744 mmHg 95%
20:00 0°C° 0.5 mm 7 mps 743 mmHg 96%
21:00 -1°C° 0.5 mm 7 mps 742 mmHg 96%
22:00 -1°C° 3.2 mm 7 mps 740 mmHg 97%
23:00 -1°C° 3.2 mm 7 mps 739 mmHg 97%

Tomorrow, 21 April, Wednesday

Time Temperature Precipitation Wind Pressure Humidity
00:00 -1°C° 3.2 mm 7 mps 737 mmHg 98%
01:00 0°C° 2.1 mm 7 mps 736 mmHg 97%
02:00 +2°C° 2.1 mm 7 mps 735 mmHg 97%
03:00 +2°C° 2.1 mm 8 mps 733 mmHg 96%
04:00 +2°C° 0.7 mm 6 mps 734 mmHg 96%
05:00 +1°C° 0.7 mm 5 mps 734 mmHg 97%
06:00 +1°C° 0.7 mm 4 mps 735 mmHg 98%
07:00 0°C° 0.7 mm 4 mps 736 mmHg 98%
08:00 0°C° 0.7 mm 4 mps 736 mmHg 98%
09:00 +1°C° 0.7 mm 3 mps 737 mmHg 98%
10:00 0°C° 0.1 mm 4 mps 737 mmHg 96%
11:00 0°C° 0.1 mm 5 mps 738 mmHg 95%
12:00 +1°C° 0.1 mm 6 mps 739 mmHg 93%
13:00 +1°C° 0 mm 5 mps 739 mmHg 92%
14:00 +2°C° 0 mm 5 mps 740 mmHg 90%
15:00 +2°C° 0 mm 5 mps 741 mmHg 89%
16:00 +2°C° 0 mm 5 mps 741 mmHg 89%
17:00 +3°C° 0 mm 5 mps 742 mmHg 89%
18:00 +4°C° 0 mm 4 mps 742 mmHg 88%
19:00 +4°C° 0 mm 4 mps 743 mmHg 89%
20:00 +4°C° 0 mm 3 mps 743 mmHg 90%
21:00 +4°C° 0 mm 3 mps 744 mmHg 91%
22:00 +4°C° 0 mm 3 mps 744 mmHg 92%
23:00 +4°C° 0 mm 3 mps 744 mmHg 93%

Day after tomorrow, 22 April, Thursday

Time Temperature Precipitation Wind Pressure Humidity
00:00 +5°C° 0 mm 2 mps 744 mmHg 93%
01:00 +4°C° 0 mm 2 mps 744 mmHg 93%
02:00 +3°C° 0 mm 3 mps 745 mmHg 93%
03:00 +3°C° 0 mm 3 mps 745 mmHg 92%
04:00 +4°C° 0 mm 2 mps 745 mmHg 93%
05:00 +3°C° 0 mm 2 mps 745 mmHg 93%
06:00 +3°C° 0 mm 2 mps 746 mmHg 94%
07:00 +5°C° 0 mm 2 mps 746 mmHg 89%
08:00 +5°C° 0 mm 3 mps 746 mmHg 83%
09:00 +7°C° 0 mm 3 mps 747 mmHg 78%
10:00 +8°C° 0 mm 3 mps 747 mmHg 73%
11:00 +9°C° 0 mm 3 mps 747 mmHg 68%
12:00 +10°C° 0 mm 4 mps 747 mmHg 63%
13:00 +10°C° 0 mm 3 mps 748 mmHg 63%
14:00 +10°C° 0 mm 3 mps 748 mmHg 64%
15:00 +10°C° 0 mm 3 mps 748 mmHg 64%
16:00 +10°C° 0 mm 3 mps 748 mmHg 67%
17:00 +10°C° 0 mm 2 mps 748 mmHg 69%
18:00 +9°C° 0 mm 2 mps 748 mmHg 72%
19:00 +8°C° 0 mm 2 mps 748 mmHg 74%
20:00 +7°C° 0 mm 2 mps 748 mmHg 76%
21:00 +6°C° 0 mm 2 mps 749 mmHg 78%
22:00 +6°C° 0 mm 2 mps 748 mmHg 80%
23:00 +6°C° 0 mm 2 mps 748 mmHg 81%

23 April, Friday

Time Temperature Precipitation Wind Pressure Humidity
00:00 +6°C° 0 mm 2 mps 748 mmHg 82%
01:00 +5°C° 0 mm 2 mps 748 mmHg 85%
02:00 +5°C° 0 mm 2 mps 748 mmHg 87%
03:00 +5°C° 0 mm 2 mps 748 mmHg 90%
04:00 +5°C° 0 mm 2 mps 748 mmHg 91%
05:00 +4°C° 0 mm 3 mps 748 mmHg 92%
06:00 +4°C° 0 mm 3 mps 748 mmHg 93%
07:00 +7°C° 0 mm 3 mps 748 mmHg 88%
08:00 +8°C° 0 mm 4 mps 748 mmHg 82%
09:00 +11°C° 0 mm 4 mps 748 mmHg 76%
10:00 +12°C° 0 mm 5 mps 748 mmHg 71%
11:00 +14°C° 0 mm 5 mps 748 mmHg 66%
12:00 +15°C° 0 mm 5 mps 748 mmHg 61%
13:00 +16°C° 0.2 mm 5 mps 747 mmHg 58%
14:00 +16°C° 0.2 mm 6 mps 747 mmHg 55%
15:00 +16°C° 0.2 mm 6 mps 747 mmHg 52%
16:00 +16°C° 0 mm 5 mps 747 mmHg 56%
17:00 +15°C° 0 mm 5 mps 746 mmHg 60%
18:00 +14°C° 0 mm 4 mps 746 mmHg 64%
19:00 +13°C° 0 mm 5 mps 746 mmHg 66%
20:00 +13°C° 0 mm 5 mps 746 mmHg 69%
21:00 +12°C° 0 mm 5 mps 746 mmHg 71%
22:00 +10°C° 0 mm 5 mps 746 mmHg 74%
23:00 +10°C° 0 mm 4 mps 745 mmHg 76%

24 April, Saturday

Time Temperature Precipitation Wind Pressure Humidity
00:00 +10°C° 0 mm 4 mps 745 mmHg 79%
01:00 +8°C° 0 mm 4 mps 745 mmHg 80%
02:00 +8°C° 0 mm 4 mps 744 mmHg 82%
03:00 +7°C° 0 mm 4 mps 744 mmHg 83%
04:00 +7°C° 0 mm 4 mps 743 mmHg 83%
05:00 +7°C° 0 mm 4 mps 743 mmHg 83%
06:00 +7°C° 0 mm 4 mps 742 mmHg 83%
07:00 +8°C° 0 mm 5 mps 742 mmHg 79%
08:00 +9°C° 0 mm 5 mps 742 mmHg 74%
09:00 +11°C° 0 mm 6 mps 741 mmHg 70%
10:00 +11°C° 0.4 mm 6 mps 741 mmHg 69%
11:00 +11°C° 0.4 mm 7 mps 741 mmHg 69%
12:00 +11°C° 0.4 mm 7 mps 740 mmHg 68%
13:00 +9°C° 1 mm 7 mps 740 mmHg 76%
14:00 +5°C° 1 mm 7 mps 740 mmHg 84%
15:00 +3°C° 1 mm 7 mps 740 mmHg 93%
16:00 +3°C° 0.5 mm 6 mps 740 mmHg 90%
17:00 +2°C° 0.5 mm 6 mps 740 mmHg 88%
18:00 +2°C° 0.5 mm 5 mps 740 mmHg 86%
19:00 +4°C° 0 mm 4 mps 740 mmHg 84%
20:00 +4°C° 0 mm 4 mps 740 mmHg 83%
21:00 +4°C° 0 mm 3 mps 740 mmHg 81%
22:00 +3°C° 0.2 mm 3 mps 740 mmHg 85%
23:00 +3°C° 0.2 mm 4 mps 740 mmHg 89%

25 April, Sunday

Time Temperature Precipitation Wind Pressure Humidity
00:00 +1°C° 0.2 mm 4 mps 739 mmHg 93%
01:00 +1°C° 1 mm 5 mps 740 mmHg 92%
02:00 +1°C° 1 mm 6 mps 740 mmHg 90%
03:00 -1°C° 1 mm 6 mps 740 mmHg 88%
04:00 -1°C° 0 mm 6 mps 740 mmHg 87%
05:00 -1°C° 0 mm 6 mps 740 mmHg 86%
06:00 -2°C° 0.1 mm 6 mps 740 mmHg 85%
07:00 -1°C° 0 mm 6 mps 741 mmHg 81%
08:00 0°C° 0 mm 7 mps 741 mmHg 77%
09:00 +2°C° 0 mm 7 mps 741 mmHg 73%
10:00 +3°C° 0.4 mm 7 mps 741 mmHg 68%
11:00 +4°C° 0.4 mm 8 mps 741 mmHg 62%
12:00 +5°C° 0.4 mm 8 mps 741 mmHg 57%
13:00 +5°C° 0.3 mm 8 mps 741 mmHg 55%
14:00 +5°C° 0.3 mm 7 mps 741 mmHg 53%
15:00 +5°C° 0.3 mm 7 mps 741 mmHg 51%
16:00 +5°C° 0.2 mm 6 mps 741 mmHg 56%
17:00 +4°C° 0.2 mm 6 mps 741 mmHg 60%
18:00 +5°C° 0.2 mm 5 mps 741 mmHg 65%
19:00 +4°C° 0.1 mm 4 mps 741 mmHg 70%
20:00 +3°C° 0.1 mm 3 mps 741 mmHg 74%
21:00 +2°C° 0.1 mm 3 mps 741 mmHg 78%
22:00 +1°C° 0 mm 3 mps 741 mmHg 79%
23:00 +1°C° 0 mm 3 mps 741 mmHg 80%
Show more